Location: Dillon
(41.1766°N, 107.0923°W)
Time: 14:03:01
(UTC+00:00)

DIWATA 2B (PO-101) - Pass Details

Date: 06 July 2022
Orbit: 583 x 599 km, 98.0° (Epoch: 19 August)

Event Time Altitude Azimuth Distance (km) Brightness Sun altitude
Exits shadow 10:23:49 12° 262° (W) 1,813 ? -12.4°
Maximum altitude 10:24:17 12° 269° (W) 1,802 ? -12.3°
Drops below altitude 10° 10:25:59 10° 293° (WNW) 1,944 ? -12.1°
Sets 10:29:30 0° 324° (NW) 2,853 ? -11.6°
